Regional Weather Roundup
Issued by NWS

Home | Current Version | Previous Version | Graphics & Text | Print | Product List | Glossary On
Versions: 1 2 3 4 5 6 7 8 9 10 11 12 13 14 15 16 17 18 19 20 21 22 23 24 25 26 27
000
ASUS45 KCYS 210510
RWRWY

WYOMING REGIONAL WEATHER ROUNDUP
NATIONAL WEATHER SERVICE CHEYENNE WY
1000 PM MST MON NOV 20 2017

NOTE:  "FAIR" INDICATES FEW OR NO CLOUDS BELOW 12,000 FEET
WITH NO SIGNIFICANT WEATHER AND/OR OBSTRUCTIONS TO VISIBILITY.

WYZ001-210600-
YELLOWSTONE NATIONAL PARK

CITY           SKY/WX    TMP DP  RH WIND       PRES   REMARKS
LK YELLOWSTONE   N/A     30  28  92 VRB7      30.04R WCI  23
W YELLOWSTONE  NOT AVBL

$$
WYZ002>013-054>058-071-098>099-210600-
NORTHERN WYOMING

CITY           SKY/WX    TMP DP  RH WIND       PRES   REMARKS
JACKSON        FLURRIES  32  31  96 W8        30.04R WCI  25
CODY           FAIR      39  28  64 E3        29.88R
GREYBULL       MOCLDY    41  35  79 SE6       29.86R
WORLAND        FAIR      30  27  88 S6        29.89R WCI  24
SHERIDAN       CLOUDY    41  36  82 NW9       29.87R
BUFFALO        FAIR      39  31  72 N8        29.84R WCI  33
GILLETTE       CLOUDY    38  29  70 N10       29.83R WCI  31
HULETT         LGT SNOW  34  32  93 N6        29.84R WCI  29
NEWCASTLE      FAIR      34  23  64 N5        29.78R WCI  30

$$
WYZ014>020-022>026-101>103-210600-
CENTRAL WYOMING

CITY           SKY/WX    TMP DP  RH WIND       PRES   REMARKS
BIG PINEY      LGT SNOW  31  27  85 NE5       30.07R FOG     WCI  26
PINEDALE       LGT SNOW  32  32 100 E6        30.09R WCI  26
DUBOIS         FLURRIES  34  30  86 N14G21    29.95S WCI  24
LANDER         FAIR      42  24  49 E8        29.90R
RIVERTON       FAIR      39  29  67 S5        29.92R
CASPER         FAIR      41  25  53 SW24G30   29.85S
DOUGLAS        FAIR      41  26  55 NW10      29.83R

$$
WYZ021-027>030-104>119-210600-
SOUTHERN WYOMING

CITY           SKY/WX    TMP DP  RH WIND       PRES   REMARKS
EVANSTON       MOCLDY    38  31  76 SW21      30.13S WCI  28
KEMMERER       LGT SNOW  32  32 100 W15       30.12R WCI  22
FORT BRIDGER   CLOUDY    39  32  76 W17G23    30.14S WCI  30
ROCK SPRINGS   CLOUDY    37  28  70 W20       30.11R WCI  27
DIXON          CLOUDY    37  20  52 SW9       30.13R WCI  30
RAWLINS        FLURRIES  38  30  73 W32G40    30.01R WCI  25
SARATOGA       FAIR      37  28  70 SW20      30.03R WCI  27
LARAMIE        FAIR      40  11  30 W13G18    29.96S WCI  32
CHEYENNE       FAIR      49   8  19 SW16      29.89R
TORRINGTON     MOCLDY    54  24  31 NW17G24   29.79R
PINE BLUFFS    MOCLDY    46  10  23 MISG      29.85F

$$




USA.gov is the U.S. government's official web portal to all federal, state and local government web resources and services.